This is the latest recevied weather packets stored in our database for station/object W1ERB-13. If no packets are shown the sender has not sent any weather packets the latest 10 day(s).
| Time | Temp. | Humidity | Pressure | Rain* | Wind** | Luminosity | Snow |
|---|---|---|---|---|---|---|---|
| 1777555377 | 9.44° C | 99% | 1007.1 hPa | 0 mm | - | 92 W/m² | - |
| 1777555074 | 9.44° C | 99% | 1007.1 hPa | 0 mm | - | 111 W/m² | - |
| 1777554771 | 9.44° C | 99% | 1007.1 hPa | 0 mm | - | 112 W/m² | - |
| 1777554468 | 9.44° C | 99% | 1007 hPa | 0 mm | - | 114 W/m² | - |
| 1777554165 | 9.44° C | 99% | 1007 hPa | 0 mm | - | 101 W/m² | - |
| 1777553862 | 8.89° C | 99% | 1007.3 hPa | 0 mm | - | 59 W/m² | - |
| 1777553558 | 8.89° C | 99% | 1007.2 hPa | 0 mm | - | 45 W/m² | - |
| 1777553253 | 9.44° C | 99% | 1007.3 hPa | 0 mm | - | 65 W/m² | - |
| 1777552950 | 8.89° C | 99% | 1007.5 hPa | 0 mm | - | 78 W/m² | - |
| 1777552645 | 8.89° C | 99% | 1007.4 hPa | 0 mm | - | 56 W/m² | - |
| 1777552342 | 8.89° C | 99% | 1007.5 hPa | 0 mm | - | 57 W/m² | - |
| 1777552039 | 8.89° C | 99% | 1007.6 hPa | 0 mm | - | 69 W/m² | - |
| 1777551736 | 8.89° C | 99% | 1007.2 hPa | 0 mm | - | 83 W/m² | - |
| 1777551433 | 8.89° C | 99% | 1007.5 hPa | 1.78 mm | - | 83 W/m² | - |
| 1777551130 | 8.89° C | 99% | 1007.5 hPa | 1.78 mm | - | 85 W/m² | - |
| 1777550828 | 8.89° C | 99% | 1007.6 hPa | 0 mm | - | 81 W/m² | - |
| 1777550523 | 8.89° C | 99% | 1007.5 hPa | 1.27 mm | - | 69 W/m² | - |
| 1777550219 | 8.89° C | 99% | 1007.6 hPa | 1.27 mm | - | 38 W/m² | - |
| 1777549916 | 8.89° C | 99% | 1007.4 hPa | 0 mm | - | 41 W/m² | - |
| 1777549612 | 8.89° C | 99% | 1007.7 hPa | 0 mm | - | 37 W/m² | - |
| 1777549307 | 8.89° C | 99% | 1008 hPa | 0 mm | - | 31 W/m² | - |
| 1777549005 | 8.89° C | 99% | 1007.9 hPa | 0 mm | - | 28 W/m² | - |
| 1777548701 | 8.89° C | 99% | 1007.7 hPa | 0 mm | - | 45 W/m² | - |
| 1777548399 | 8.89° C | 99% | 1008.1 hPa | 0 mm | - | 25 W/m² | - |
| 1777548096 | 8.89° C | 99% | 1007.8 hPa | 1.78 mm | - | 26 W/m² | - |
* Rain latest hour (hover to see other rain measurements)
** Current wind speed in m/s (hover to see current wind gust speed)